Location: Bonchamp
(47.0296°N, 0.8351°E)
Time: 23:41:52
(UTC+00:00)

CZ-4B R/B - Pass Details

Date: 06 September 2025
Orbit: 699 x 798 km, 98.9° (Epoch: 15 December)

Event Time Altitude Azimuth Distance (km) Brightness Sun altitude
Exits shadow 20:58:37 37° 208° (SSW) 1,088 4.1 -24.2°
Maximum altitude 21:00:07 51° 259° (W) 881 3.9 -24.4°
Drops below altitude 10° 21:04:45 10° 336° (NNW) 2,186 6.7 -25.0°
Sets 21:07:06 0° 341° (NNW) 3,119 7.6 -25.3°
